Temperature
18 18 18 18 18 18 18 18 19 19 19 18 18 18 18 18 18 18 18 19 19 19 19 19 19 19 19 19 19 18 18 18 18 18 18 18 18 18 18 18 18 18 19
19 18 18 18 18 18 18 18 18 18 18 18 18 18 18 18 18 18 18 18 18 18 18 18 19 19 19 19 18 18 18 18 18 18 18 18 18 18 18 18 18 18 18
18 18 18 18 18 18 18 18 18 18 18 18 18 18 18 18 18 18 18 18 18 18 18 18 18 18 18 18 18 18 18 18 18 18 18 18 18 18 18 18 18 18 18
18 18 18 18 18 18 18 18 18 18 18 18 18 18 18 18 18 17 18 18 18 18 18 18 18 18 18 18 18 18 18 18 18 18 18 18 18 18 18 18 18 18 18
18 18 18 18 18 18 18 18 18 18 18 18 18 17 17 17 17 17 17 17 17 17 17 18 18 18 18 18 18 18 18 18 18 18 18 18 18 18 18 18 18 18 18
18 18 18 18 18 18 18 17 17 17 17 17 17 17 17 17 17 17 17 17 17 17 17 17 17 17 18 18 18 18 18 18 18 18 18 18 18 18 18 18 18 18 18
18 18 18 18 18 17 17 17 17 17 16 16 16 16 16 16 16 16 16 16 17 17 17 17 17 17 17 17 17 17 18 18 18 18 18 18 18 18 18 18 18 18 18
19 18 18 18 17 17 17 17 16 16 16 16 16 16 16 16 16 16 16 16 16 16 17 17 17 17 17 17 17 17 17 17 17 18 18 17 18 18 18 18 18 18 18
18 18 18 18 17 17 17 16 16 16 15 15 15 15 15 15 15 15 15 15 16 16 16 16 16 16 17 17 17 17 17 17 17 17 17 17 17 17 18 18 18 18 18
18 18 18 18 17 17 17 16 16 15 15 15 15 15 15 15 15 15 15 15 15 16 16 16 16 16 16 16 17 17 17 17 17 17 17 17 17 17 17 17 17 17 18
18 18 18 18 17 17 16 16 16 15 15 15 15 15 15 15 15 15 15 15 15 15 15 15 15 16 16 16 16 16 17 17 17 17 17 17 17 17 17 17 17 17 17
19 19 18 18 17 17 16 16 16 15 15 15 15 15 15 14 14 14 14 14 15 15 15 15 15 15 16 16 16 16 17 17 17 17 17 17 17 17 17 17 17 17 17
19 19 18 18 17 17 17 16 16 15 15 15 15 15 14 14 14 14 14 14 14 15 15 15 15 15 15 15 16 16 16 17 17 17 17 17 17 17 17 17 17 17 17
19 19 18 18 17 17 17 16 16 15 15 15 15 15 14 14 14 14 14 14 14 14 14 15 15 15 15 15 15 16 16 17 17 17 17 17 17 17 17 17 17 17 17
19 19 18 18 18 17 17 16 16 15 15 15 15 14 14 14 14 14 14 14 14 14 14 14 15 15 15 15 15 15 16 16 17 17 17 17 17 17 17 17 17 17 17
19 19 19 18 18 17 17 16 16 15 15 15 14 14 14 14 14 14 14 14 14 14 14 14 14 14 15 15 15 15 16 16 16 16 17 17 17 17 17 17 17 17 17
20 19 19 18 18 17 17 16 15 15 15 14 14 14 14 14 14 14 14 14 14 14 14 14 14 14 14 15 15 15 15 16 16 16 16 17 17 17 17 17 17 17 17
20 19 19 18 18 17 17 16 15 15 15 14 14 14 14 14 13 13 13 13 14 14 14 14 14 14 14 14 15 15 15 15 16 16 16 16 17 17 17 17 17 17 17
20 19 19 18 18 17 16 16 15 15 14 14 14 13 13 13 13 13 13 13 13 13 14 14 14 14 14 14 14 15 15 15 15 16 16 16 16 16 16 17 17 17 17
20 19 19 18 18 17 17 16 15 15 14 14 14 13 13 13 13 13 13 13 13 13 13 14 14 14 14 14 14 15 15 15 15 16 16 16 16 16 16 17 17 17 17
20 19 19 18 18 17 17 16 16 15 14 14 13 13 13 13 13 13 13 13 13 13 13 13 13 14 14 14 14 14 15 15 15 15 15 16 16 16 16 16 17 17 17
20 20 19 18 18 17 17 16 15 15 14 14 13 13 13 13 13 13 12 12 13 13 13 13 13 13 14 14 14 14 14 15 15 15 15 15 16 16 16 16 16 17 17
20 20 19 19 18 17 17 16 15 15 14 14 13 13 13 13 13 12 12 12 12 13 13 13 13 13 13 14 14 14 14 15 15 15 15 15 15 16 16 16 16 16 17
21 20 19 19 18 17 17 16 16 15 15 14 14 13 13 13 13 13 12 12 12 12 13 13 13 13 13 13 14 14 14 14 15 15 15 15 15 16 16 16 16 16 16
21 20 19 19 18 17 17 16 16 15 15 14 14 13 13 13 13 13 12 12 12 12 12 13 13 13 13 13 13 14 14 14 14 15 14 15 15 15 15 16 16 16 16
20 20 19 19 18 17 17 16 16 15 15 14 14 14 13 13 13 13 12 12 12 12 12 12 13 13 13 13 13 14 14 14 15 15 15 14 15 15 15 15 16 16 16
Wind_Speed
3 4 8 9 8 8 8 8 7 7 7 7 6 6 6 6 6 5 5 5 5 4 4 4 4 4 4 4 4 4 4 4 4 4 4 4 4 4 5 6 6 6 8
5 6 9 9 8 8 7 7 6 6 6 5 5 5 4 4 4 4 3 3 3 3 3 2 2 2 2 3 3 3 3 3 2 2 2 2 2 3 4 5 5 5 7
7 7 9 9 8 7 7 6 6 5 5 4 3 3 3 2 2 2 2 2 1 1 1 1 2 1 1 1 1 1 1 1 1 2 2 2 1 2 3 4 5 6 6
7 8 8 8 8 7 6 6 5 4 4 3 3 2 1 1 1 0 0 0 1 2 2 2 2 2 2 2 1 1 1 1 2 2 2 1 1 2 3 4 5 5 5
7 8 8 8 7 7 6 5 4 3 3 2 2 1 1 1 1 1 2 2 3 3 4 4 3 3 4 3 3 2 2 2 2 3 3 2 2 3 4 4 4 5 5
6 7 8 8 7 6 5 4 3 2 2 1 1 1 2 2 2 3 3 4 5 5 5 5 5 5 5 5 4 4 3 2 2 2 2 3 2 4 4 5 5 5 5
6 6 7 7 7 6 4 3 2 1 1 1 2 2 3 4 4 5 5 5 6 6 7 7 7 6 7 6 6 5 4 3 1 1 2 3 4 5 5 6 6 6 6
7 6 6 7 6 5 4 3 2 1 1 1 2 2 3 4 5 6 6 6 7 7 7 7 7 7 7 7 7 6 6 4 1 0 2 3 5 6 6 6 7 7 7
4 4 4 4 4 4 3 2 1 1 1 2 3 4 4 5 6 6 6 7 7 7 7 7 7 8 8 8 7 6 6 4 2 1 3 3 6 7 7 7 8 7 7
4 3 3 3 2 2 1 2 1 1 2 3 4 5 5 5 6 7 7 7 7 7 7 7 7 7 7 7 6 6 4 3 2 2 3 5 6 7 7 7 8 8 7
4 3 3 3 3 2 2 2 2 3 4 5 5 6 6 5 6 7 7 7 6 6 6 6 7 7 6 5 5 4 2 2 2 3 4 6 7 8 8 8 8 8 8
6 6 5 5 4 3 2 1 2 2 3 4 4 5 5 5 5 5 6 7 6 6 5 5 6 5 4 2 3 3 2 2 2 3 4 7 8 8 8 8 9 9 9
7 5 5 5 4 3 2 1 1 1 2 3 4 4 4 4 5 5 5 6 6 5 5 5 5 4 2 2 2 2 3 3 3 3 5 7 7 8 8 8 9 9 9
6 6 5 5 4 3 2 1 1 1 1 1 3 3 2 2 2 3 3 4 4 3 3 3 2 2 2 2 2 2 3 3 3 3 5 6 6 7 8 9 9 9 10
7 6 5 4 4 3 2 1 2 1 1 1 2 3 2 1 2 2 2 3 3 3 2 2 2 2 2 2 2 2 3 3 3 3 3 4 5 6 7 8 9 9 9
7 7 5 5 5 4 3 2 1 2 2 2 2 3 3 2 1 2 2 3 3 4 3 2 2 2 2 2 2 2 2 2 3 3 3 3 4 4 5 6 7 9 9
7 6 5 6 5 4 4 3 2 2 3 2 2 3 4 3 2 2 2 3 3 4 3 2 2 1 1 1 2 2 2 2 2 3 2 2 2 3 3 4 5 6 7
7 7 6 6 6 5 4 3 2 3 2 2 2 3 4 4 3 2 2 3 4 4 2 1 1 1 1 1 1 1 1 1 2 2 1 1 1 1 1 2 3 5 6
9 8 7 6 6 5 4 3 2 2 2 1 2 2 3 4 4 2 2 3 4 3 2 2 1 0 1 1 1 0 1 1 1 0 0 0 1 1 0 1 2 3 5
8 8 7 6 6 5 4 3 3 2 1 1 1 2 3 4 4 3 2 3 4 3 3 3 1 1 0 1 1 2 1 1 1 1 1 0 0 1 1 1 2 3 4
8 8 8 7 6 5 3 2 2 1 0 1 1 2 3 3 4 3 2 3 4 3 3 3 1 1 1 1 2 2 2 2 1 1 1 1 0 1 1 1 2 2 3
10 9 8 8 7 6 3 3 2 2 1 1 1 2 2 3 4 2 3 3 3 3 4 4 2 1 1 1 2 2 1 2 2 2 1 1 1 1 0 1 2 2 2
10 11 10 9 7 6 5 3 3 3 2 2 2 2 2 3 3 3 3 2 3 3 3 3 2 1 0 1 1 2 2 2 1 2 2 2 1 1 1 0 1 2 3
10 9 9 8 7 6 6 4 4 3 2 3 2 2 3 2 2 2 2 3 3 2 3 3 2 1 1 1 1 1 1 2 2 1 2 2 2 2 2 1 1 1 1
8 8 8 7 7 6 6 6 5 3 3 1 1 2 3 3 2 2 2 2 3 3 3 3 3 2 1 1 0 0 1 2 1 2 1 1 2 2 2 2 2 2 2
6 7 7 8 7 6 6 6 6 6 4 2 2 2 2 2 3 2 1 2 2 2 3 2 2 2 2 1 1 1 1 1 1 2 2 1 1 2 3 3 2 2 3
Wind_Direction
179 183 156 138 129 122 117 115 114 112 111 110 109 108 111 115 115 116 120 119 117 117 113 106 97 93 97 98 93 88 85 86 88 90 88 88 90 96 94 90 83 72 78
150 161 151 139 132 125 120 116 113 112 109 108 108 107 106 109 113 120 122 120 123 127 126 124 118 111 105 104 98 87 78 71 70 77 73 75 98 110 114 111 102 90 84
132 142 144 141 135 129 126 120 113 106 103 102 102 104 103 101 105 111 119 124 137 163 167 169 172 173 171 151 127 100 59 32 28 32 43 27 14 146 138 131 121 107 96
132 135 144 143 137 134 128 120 113 107 101 95 90 85 80 74 76 53 318 260 253 250 243 237 224 219 227 230 235 259 311 331 339 4 21 349 291 196 168 151 138 127 113
130 136 148 147 142 139 131 125 117 109 96 83 67 47 28 352 320 301 290 282 274 268 265 260 252 245 246 246 247 260 287 310 323 6 6 338 294 236 187 174 161 145 134
134 143 156 152 148 143 136 128 117 101 80 56 26 360 343 331 320 315 303 292 285 279 274 270 264 256 258 259 256 256 265 284 332 357 342 323 279 244 205 188 180 164 151
150 153 161 158 153 148 143 139 129 103 58 20 2 350 334 320 315 311 305 302 295 287 280 278 276 266 262 263 262 260 263 270 263 289 321 302 271 251 222 201 190 180 169
158 157 164 168 163 162 159 158 148 119 64 5 350 342 332 326 320 314 306 301 297 292 287 281 281 276 273 273 267 262 260 262 252 278 299 283 264 252 231 215 203 192 184
149 150 163 171 174 179 180 184 193 211 310 333 336 332 329 326 322 318 312 305 301 293 290 287 278 275 275 275 268 258 260 252 215 235 279 277 268 254 236 217 207 198 193
153 162 167 175 181 193 220 244 247 292 316 331 337 339 341 343 337 331 325 315 309 300 295 295 286 278 274 274 271 263 263 265 241 242 262 271 270 256 238 216 205 202 194
192 191 188 194 206 216 241 276 309 330 347 353 351 352 2 352 342 333 329 322 319 310 304 305 300 290 279 275 270 264 262 229 231 249 259 264 263 255 240 217 207 204 194
207 209 201 201 207 215 236 270 319 338 356 0 355 357 359 353 344 343 342 343 339 334 329 326 324 317 306 289 274 272 249 228 222 255 266 267 261 252 233 217 210 205 197
206 205 196 200 199 200 212 223 268 339 359 5 4 6 11 12 3 2 0 354 351 349 348 343 346 339 322 275 251 240 238 240 230 250 269 273 267 252 232 218 212 208 201
197 206 197 189 183 190 189 189 173 153 56 31 15 23 37 25 9 358 356 342 342 336 332 334 320 310 293 269 242 235 241 245 251 256 268 278 272 253 236 220 213 209 205
198 202 197 183 179 172 162 182 141 141 123 84 42 37 52 51 14 355 346 345 341 337 328 315 306 304 293 273 246 229 238 247 256 261 271 291 281 259 235 223 218 211 206
199 196 186 176 174 161 162 161 140 139 133 91 55 43 58 63 40 1 352 344 341 336 319 300 291 284 279 269 264 252 249 253 249 247 259 278 285 267 240 227 222 214 208
193 183 177 174 163 159 159 161 137 140 123 96 60 46 50 48 40 23 356 341 330 331 326 317 310 301 286 276 269 265 251 241 236 240 243 250 277 263 239 232 227 216 211
174 171 181 169 154 159 157 145 130 130 119 97 59 36 32 32 33 31 3 341 335 338 337 321 312 310 313 311 293 280 261 253 245 239 221 215 220 231 227 234 229 216 212
174 169 170 156 155 158 146 120 107 108 103 84 53 31 20 22 28 34 2 340 346 349 348 333 349 278 284 307 279 268 316 294 282 267 27 191 184 156 182 214 218 209 203
167 164 162 153 153 138 114 93 72 68 53 41 28 12 15 15 18 23 8 357 2 5 358 354 345 347 305 301 23 60 25 344 358 19 350 360 217 121 170 168 176 198 203
161 166 166 161 163 149 135 135 127 161 272 328 329 350 7 9 11 20 10 3 8 9 347 343 350 8 5 11 66 39 13 15 30 19 17 20 45 80 103 142 150 166 183
174 175 172 174 174 176 163 152 151 151 186 252 310 336 358 7 4 13 18 3 0 360 359 3 11 5 5 33 91 94 32 3 359 19 31 39 14 51 82 128 143 159 163
182 181 184 182 180 179 157 119 90 67 41 10 338 325 332 348 0 12 5 359 358 6 350 345 2 34 359 359 51 127 142 204 324 5 17 18 20 29 11 42 128 158 165
191 182 179 178 179 177 165 162 155 160 186 227 243 282 310 330 346 358 358 354 357 0 352 337 14 13 82 46 5 38 107 153 129 64 2 0 21 32 18 19 44 76 136
181 177 176 173 178 177 175 174 164 168 194 216 247 291 309 323 330 335 347 352 352 351 351 357 6 23 49 88 68 52 61 57 83 134 113 357 17 19 15 20 44 48 64
175 172 171 174 184 180 177 177 178 181 187 197 233 268 297 309 314 319 335 349 338 335 341 349 5 26 33 59 58 63 106 118 136 123 127 94 50 11 14 31 42 40 56
Height
1515 1516 1518 1519 1520 1521 1522 1523 1523 1524 1525 1525 1526 1526 1526 1527 1527 1528 1528 1528 1528 1528 1528 1528 1528 1528 1528 1527 1527 1527 1527 1527 1527 1526 1526 1526 1526 1526 1526 1526 1526 1525 1525
1515 1517 1518 1520 1521 1522 1522 1523 1524 1524 1525 1525 1526 1526 1527 1527 1527 1527 1528 1528 1528 1528 1528 1528 1528 1528 1528 1528 1527 1527 1527 1527 1527 1527 1527 1527 1527 1527 1527 1527 1527 1526 1526
1516 1517 1519 1520 1521 1522 1523 1523 1524 1524 1524 1525 1525 1526 1526 1527 1527 1527 1527 1527 1528 1528 1528 1528 1528 1528 1528 1528 1527 1527 1527 1527 1527 1527 1527 1527 1527 1527 1527 1527 1527 1527 1527
1517 1518 1520 1521 1522 1522 1523 1523 1524 1524 1524 1524 1525 1525 1525 1526 1526 1526 1526 1527 1527 1527 1527 1527 1527 1527 1527 1527 1527 1527 1527 1527 1528 1528 1528 1528 1528 1528 1528 1528 1528 1528 1528
1518 1519 1520 1521 1522 1523 1523 1523 1523 1524 1524 1524 1524 1524 1524 1524 1525 1525 1525 1525 1526 1526 1526 1526 1526 1526 1527 1527 1527 1527 1527 1527 1527 1527 1528 1528 1528 1528 1528 1528 1529 1529 1529
1519 1520 1521 1522 1522 1523 1523 1523 1523 1523 1523 1522 1522 1522 1523 1523 1523 1523 1524 1524 1524 1524 1524 1525 1525 1525 1525 1526 1526 1526 1526 1526 1527 1527 1527 1527 1528 1528 1528 1528 1529 1529 1530
1520 1521 1522 1522 1523 1523 1523 1523 1522 1522 1522 1522 1521 1521 1521 1521 1521 1521 1522 1522 1522 1522 1522 1523 1523 1523 1524 1524 1525 1525 1525 1525 1526 1526 1527 1527 1527 1527 1528 1528 1529 1530 1530
1521 1521 1522 1523 1523 1523 1523 1522 1522 1522 1521 1521 1521 1520 1520 1520 1520 1520 1520 1520 1520 1520 1520 1520 1521 1521 1522 1522 1523 1523 1524 1524 1525 1525 1526 1526 1527 1527 1527 1528 1529 1530 1530
1521 1522 1523 1523 1523 1523 1523 1522 1522 1521 1521 1521 1520 1520 1519 1519 1519 1519 1519 1519 1518 1518 1518 1518 1518 1519 1519 1520 1521 1521 1522 1523 1523 1524 1525 1525 1526 1526 1527 1528 1528 1529 1530
1521 1522 1523 1523 1523 1523 1523 1522 1522 1522 1521 1521 1520 1520 1519 1519 1518 1518 1517 1517 1517 1516 1516 1516 1516 1516 1517 1517 1518 1519 1520 1521 1522 1523 1524 1524 1525 1526 1526 1527 1528 1529 1530
1521 1522 1522 1523 1523 1523 1523 1522 1522 1522 1521 1521 1520 1520 1519 1518 1517 1517 1516 1516 1515 1515 1514 1514 1514 1514 1515 1515 1516 1517 1518 1519 1520 1521 1522 1523 1524 1525 1525 1526 1527 1528 1529
1521 1521 1522 1522 1523 1523 1523 1522 1522 1522 1521 1521 1520 1519 1518 1518 1517 1516 1515 1515 1514 1514 1513 1513 1512 1512 1512 1513 1513 1514 1515 1517 1518 1519 1520 1522 1523 1523 1524 1525 1526 1527 1529
1520 1521 1521 1522 1522 1522 1522 1522 1521 1521 1521 1520 1519 1519 1518 1517 1516 1515 1514 1514 1513 1512 1512 1511 1511 1510 1510 1511 1511 1512 1513 1515 1516 1517 1519 1520 1521 1522 1523 1524 1525 1526 1528
1519 1520 1521 1522 1522 1522 1522 1521 1521 1520 1520 1519 1519 1518 1517 1516 1515 1514 1513 1512 1512 1511 1510 1510 1509 1509 1509 1509 1509 1510 1511 1512 1514 1515 1517 1518 1520 1521 1522 1523 1524 1525 1527
1518 1520 1521 1521 1521 1521 1521 1521 1520 1520 1519 1519 1518 1517 1516 1515 1514 1513 1512 1511 1510 1509 1508 1508 1507 1507 1507 1507 1508 1508 1509 1510 1512 1513 1515 1516 1518 1519 1520 1521 1523 1524 1526
1518 1519 1520 1521 1521 1521 1521 1520 1520 1519 1519 1518 1517 1517 1516 1514 1513 1512 1511 1510 1508 1507 1507 1506 1505 1505 1505 1505 1506 1506 1507 1508 1510 1511 1513 1514 1516 1518 1519 1520 1522 1523 1525
1517 1518 1520 1520 1521 1521 1520 1520 1519 1519 1518 1517 1517 1516 1515 1514 1512 1511 1510 1508 1507 1506 1505 1504 1504 1503 1503 1504 1504 1505 1505 1506 1508 1509 1511 1513 1515 1516 1518 1519 1520 1522 1524
1516 1518 1519 1520 1520 1520 1520 1519 1519 1518 1518 1517 1516 1515 1514 1513 1511 1510 1508 1507 1506 1505 1504 1503 1502 1502 1502 1502 1503 1503 1504 1505 1506 1508 1509 1511 1513 1514 1516 1518 1519 1521 1522
1515 1517 1518 1519 1520 1520 1520 1519 1518 1518 1517 1516 1516 1514 1513 1512 1511 1509 1507 1506 1505 1503 1502 1501 1501 1501 1501 1501 1501 1502 1503 1503 1505 1506 1507 1509 1511 1513 1515 1517 1518 1520 1521
1514 1516 1517 1518 1519 1519 1519 1518 1518 1517 1517 1516 1515 1514 1513 1511 1510 1508 1507 1505 1504 1503 1502 1500 1500 1500 1500 1500 1500 1501 1502 1502 1503 1504 1506 1508 1509 1511 1513 1515 1517 1519 1520
1512 1514 1516 1517 1518 1518 1518 1518 1517 1517 1516 1515 1515 1514 1512 1511 1510 1508 1507 1505 1504 1502 1501 1500 1499 1499 1499 1499 1499 1500 1501 1502 1503 1504 1505 1506 1508 1510 1512 1514 1516 1517 1519
1509 1512 1514 1516 1517 1517 1517 1517 1517 1516 1515 1515 1514 1513 1512 1511 1510 1508 1507 1505 1504 1502 1501 1500 1499 1499 1499 1499 1499 1499 1500 1502 1502 1503 1504 1505 1507 1508 1511 1513 1514 1516 1518
1507 1510 1512 1514 1516 1516 1516 1516 1516 1515 1515 1514 1514 1513 1512 1511 1510 1508 1507 1505 1504 1502 1501 1500 1499 1499 1499 1499 1499 1500 1500 1500 1501 1502 1503 1504 1506 1507 1509 1511 1513 1515 1517
1505 1508 1511 1513 1514 1515 1515 1515 1515 1514 1514 1514 1513 1513 1512 1511 1510 1509 1507 1506 1504 1503 1501 1500 1499 1499 1498 1498 1499 1499 1500 1500 1500 1501 1503 1503 1505 1506 1508 1510 1512 1514 1516
1504 1507 1509 1511 1512 1513 1514 1514 1514 1514 1513 1513 1513 1512 1512 1511 1510 1509 1508 1506 1505 1503 1502 1501 1500 1499 1499 1498 1499 1499 1499 1500 1500 1501 1502 1503 1504 1505 1507 1509 1511 1512 1514
1502 1505 1507 1509 1511 1512 1512 1513 1513 1513 1512 1512 1512 1512 1511 1511 1510 1509 1508 1506 1505 1504 1503 1501 1500 1500 1499 1499 1499 1499 1500 1500 1500 1501 1501 1502 1503 1505 1507 1508 1510 1511 1513